Location: Aranbee
(34.0885°N, 118.2342°W)
Time: 08:48:40
(UTC+00:00)

Courier 1B Rocket - Pass Details

Date: 27 November 2020
Orbit: 920 x 1202 km, 28.2° (Epoch: 27 January)

Event Time Altitude Azimuth Distance (km) Brightness Sun altitude
Rises 18:32:16 0° 270° (W) 3,985 8.0 32.3°
Reaches altitude 10° 18:35:26 10° 261° (W) 2,982 7.5 32.5°
Maximum altitude 18:41:48 33° 201° (SSW) 1,705 7.5 32.9°
Drops below altitude 10° 18:47:47 10° 139° (SE) 2,791 8.5 33.2°
Sets 18:50:39 0° 130° (SE) 3,697 8.7 33.3°
